Truth Or Consequences Municipal Airport Truth Or Consequences US
ICAO: KTCS
IATA: TCS
Category: Medium
Scheduled Services: No

Elevation: 4853 ft
TransAlt. 18000 ft.

Airport Communications:
ASOS:120.675
ALBUQUERQUE CNTR:128.2
ALBUQUERQUE RDO:122.2
CTAF/UNICOM:122.8

KTCS Zoom In..

If you have problems with the map follow the link
https://www.worldairports.se/pages/airport.php?
ICAO=KTCS

Runways:

(A) RW 01 length 3302 ft width 130 ft
---- / hdg 8

(B) RW 07 length 2933 ft width 130 ft
---- / hdg 66

(C) RW 11 length 6981 ft width 190 ft
---- / hdg 113

(D) RW 13 length 7202 ft width 75 ft
---- / hdg 132

(E) RW 15 length 3001 ft width 140 ft
---- / hdg 154

(F) RW 19 length 3302 ft width 130 ft
---- / hdg 188

(G) RW 25 length 2933 ft width 130 ft
---- / hdg 246

(H) RW 29 length 6981 ft width 190 ft
---- / hdg 293

(I) RW 31 length 7202 ft width 75 ft
---- / hdg 312

(J) RW 33 length 3001 ft width 140 ft
---- / hdg 334

Location; KTCS
Day. 26 / Time. 02.53 Zulu
* Altimeter: 30.11
* Temperature: 09° c. 48.2°f.
* Wind from: KTC° Speed S kn.
Dewpoint: -04° c.
Visibility: 10 Statute Miles.
Clouds: Clear (automated report).

KTCS 260253Z AUTO 33005KT 10SM CLR 09/M04 A3011 RMK AO2 SLP172 T00891039 51013


Wind From KTC°
Speed S kn.

 
 
jpsmedia worldairports.se 2020   terms of use